Tracking 29892 objects as of 21-Nov-2024
HD Live streaming from Space Station
objects crossing your sky now

STARLINK-3904

Track STARLINK-3904 now!
10-day predictions
STARLINK-3904 is classified as:


NORAD ID: 52464
Int'l Code: 2022-049P
Perigee: 546.0 km
Apogee: 547.8 km
Inclination: 53.2 °
Period: 95.4 minutes
Semi major axis: 6917 km
RCS: Unknown
Launch date: May 6, 2022
Source: United States (US)
Launch site: AIR FORCE EASTERN TEST RANGE (AFETR)
Your satellite tracking list
Your tracking list is empty




NASA's NSSDC Master Catalog

Two Line Element Set (TLE):
1 52464U 22049P   24325.59217734  .00000923  00000-0  76063-4 0  9992
2 52464  53.2174  27.4271 0001293  81.1295 278.9843 15.08842717140839
Source of the keplerian elements: AFSPC